GW4483 Weather Reports


time (UTC)temp
C
wind
direction
speed
KPH
gust
KPH
rain 1hr
cm
rain 24hr
cm
rain mn
cm
humidity
%
barometer
mb
20260507004605 21 171 4.8 14.5 0.00 0.00 0.00 63 1016.0
20260507003055 21 199 8.0 20.9 0.00 0.00 0.00 62 1015.8
20260507001555 21 0 4.8 20.9 0.00 0.00 0.00 63 1015.8
20260507000055 21 169 8.0 19.3 0.00 0.00 0.00 63 1015.8
20260506234553 21 213 6.4 22.5 0.00 0.00 0.00 62 1015.7
20260506233057 21 208 8.0 19.3 0.00 0.00 0.00 62 1015.7
20260506231601 21 127 8.0 19.3 0.00 0.00 0.00 61 1015.7
20260506230056 21 147 11.3 22.5 0.00 0.00 0.00 62 1015.7
20260506224554 21 205 9.7 20.9 0.00 0.00 0.00 61 1015.8
20260506223053 21 153 9.7 20.9 0.00 0.00 0.00 62 1016.0
20260506221555 20 116 11.3 24.1 0.00 0.00 0.00 64 1016.0
20260506220053 20 131 11.3 25.7 0.00 0.00 0.00 64 1016.2
20260506214602 20 63 8.0 22.5 0.00 0.00 0.00 64 1016.4
20260506213056 20 225 8.0 24.1 0.00 0.00 0.00 64 1016.6
20260506211604 20 223 11.3 24.1 0.00 0.00 0.00 63 1016.6
20260506210057 21 204 8.0 24.1 0.00 0.00 0.00 63 1016.8
20260506204600 20 165 9.7 20.9 0.00 0.00 0.00 63 1016.8
20260506203055 21 216 11.3 20.9 0.00 0.00 0.00 62 1016.8
20260506201551 20 171 11.3 25.7 0.00 0.00 0.00 62 1017.0
20260506200101 21 169 6.4 20.9 0.00 0.00 0.00 63 1017.2
20260506194602 20 161 8.0 22.5 0.00 0.00 0.00 63 1017.3
20260506193056 20 109 6.4 19.3 0.00 0.00 0.00 63 1017.4
20260506191605 20 178 6.4 19.3 0.00 0.00 0.00 61 1017.5
20260506190054 20 148 6.4 19.3 0.00 0.00 0.00 61 1017.5
20260506184554 20 171 6.4 17.7 0.00 0.00 0.00 58 1017.6
20260506183056 20 209 9.7 20.9 0.00 0.00 0.00 56 1017.8
20260506181559 20 221 4.8 14.5 0.00 0.00 0.00 59 1017.9
20260506180113 19 267 8.0 17.7 0.00 0.00 0.00 60 1018.1
20260506174553 18 235 6.4 14.5 0.00 0.03 0.00 61 1018.3
20260506173124 18 211 4.8 24.1 0.00 0.03 0.00 62 1018.4
20260506171603 18 217 4.8 14.5 0.00 0.03 0.00 62 1018.4
20260506170053 17 265 9.7 14.5 0.00 0.03 0.00 64 1018.4
20260506164551 17 245 8.0 16.1 0.00 0.03 0.00 65 1018.3
20260506163100 17 218 6.4 12.9 0.00 0.03 0.00 65 1018.2
20260506161557 17 151 3.2 12.9 0.00 0.03 0.00 69 1018.1
20260506160054 16 198 3.2 9.7 0.00 0.03 0.00 69 1018.3
20260506154552 16 216 3.2 12.9 0.00 0.03 0.00 70 1018.3
20260506153059 16 0 4.8 11.3 0.00 0.03 0.00 70 1018.4
20260506151558 16 279 3.2 11.3 0.00 0.03 0.00 72 1018.4
20260506150057 16 173 1.6 6.4 0.00 0.03 0.00 72 1018.4
20260506144606 15 0 0.0 4.8 0.00 0.05 0.00 76 1018.3
20260506143103 14 352 1.6 4.8 0.00 0.05 0.00 79 1018.3
20260506141557 13 360 0.0 3.2 0.00 0.05 0.00 81 1018.3
20260506140145 12 360 1.6 3.2 0.00 0.05 0.00 86 1018.2
20260506134555 11 0 1.6 3.2 0.00 0.36 0.00 86 1018.1
20260506133101 11 360 1.6 3.2 0.00 0.36 0.00 86 1018.0
20260506131553 11 0 0.0 3.2 0.00 0.36 0.00 86 1017.9
20260506130057 11 360 0.0 3.2 0.00 0.36 0.00 86 1017.8
20260506124551 11 352 0.0 3.2 0.00 0.41 0.00 86 1017.6
20260506123054 11 360 0.0 4.8 0.00 0.41 0.00 86 1017.6
20260506121554 11 15 1.6 3.2 0.00 0.41 0.00 86 1017.5
20260506120053 11 15 1.6 4.8 0.00 0.41 0.00 86 1017.4
20260506114550 11 0 0.0 4.8 0.00 0.43 0.00 86 1017.4
20260506113059 11 350 1.6 4.8 0.00 0.43 0.00 86 1017.6
20260506111558 11 352 0.0 4.8 0.00 0.43 0.00 85 1017.5
20260506110054 11 340 1.6 4.8 0.00 0.43 0.00 85 1017.5
20260506104558 11 360 1.6 4.8 0.00 0.43 0.00 85 1017.5
20260506103051 11 0 0.0 3.2 0.00 0.43 0.00 86 1017.4
20260506101556 11 352 0.0 3.2 0.00 0.43 0.00 86 1017.3
20260506100105 11 352 0.0 4.8 0.00 0.43 0.00 85 1017.3
20260506094608 11 338 1.6 3.2 0.00 0.43 0.00 85 1017.2
20260506093052 11 0 1.6 3.2 0.00 0.43 0.00 86 1017.2
20260506091553 11 352 0.0 3.2 0.00 0.43 0.00 85 1017.3
20260506090054 11 352 0.0 1.6 0.00 0.43 0.00 83 1017.4
20260506084557 11 0 0.0 3.2 0.00 0.46 0.00 83 1017.6
20260506083100 12 360 0.0 3.2 0.00 0.46 0.00 82 1017.7
20260506081554 12 0 0.0 1.6 0.00 0.46 0.00 81 1017.8
20260506080107 12 0 0.0 3.2 0.00 0.46 0.00 81 1018.0
20260506073118 12 0 0.0 3.2 0.00 0.64 0.00 81 1018.0
20260506071600 12 0 0.0 1.6 0.00 0.64 0.00 81 1018.1
20260506061604 13 0 1.6 4.8 0.00 0.64 0.64 79 1017.7
20260506044552 14 206 0.0 6.4 0.00 0.64 0.64 74 1017.4
20260506043053 14 188 1.6 6.4 0.00 0.64 0.64 74 1017.2
20260506041555 14 185 0.0 8.0 0.00 0.64 0.64 74 1017.1
20260506040050 14 196 0.0 9.7 0.00 0.64 0.64 74 1016.9
20260506034553 15 207 1.6 8.0 0.00 0.64 0.64 72 1016.7
20260506033105 15 170 3.2 8.0 0.00 0.64 0.64 74 1016.4
20260506031553 15 92 1.6 9.7 0.00 0.64 0.64 76 1016.2
20260506030059 15 99 3.2 9.7 0.00 0.64 0.64 75 1016.0
20260506024603 15 141 3.2 12.9 0.00 0.64 0.64 74 1015.8
20260506023054 15 96 3.2 14.5 0.00 0.64 0.64 72 1015.6
20260506021558 15 167 3.2 12.9 0.00 0.64 0.64 70 1015.4
20260506020051 16 123 6.4 16.1 0.00 0.64 0.64 67 1015.3
20260506014549 16 128 6.4 17.7 0.00 0.64 0.64 67 1015.2
20260506013052 17 111 8.0 17.7 0.00 0.64 0.64 65 1015.2
20260506011615 17 166 8.0 20.9 0.00 0.64 0.64 65 1015.2